User: anonymous
Location: Unspecified
(0.0000°N, 0.0000°E)
Time: 18:46:06
(UTC+02:00)
Language:

SWIFT - Orbit

View from above orbital plane
View from above orbital plane
View from above satellite
View from above satellite

Ground track
Ground track

The orbit data is extracted from the following two-line orbital elements,

1 28485U 04047A   14292.77115761  .00005885  00000-0  43108-3 0  7987
2 28485 020.5572 072.4470 0011724 231.6308 128.3072 14.99600691541910
Epoch (UTC): 19 October 2014 18:30:28
Eccentricity: 0.0011724
inclination: 20.5572°
perigee height: 560 km
apogee height: 576 km
right ascension of ascending node: 72.4470°
argument of perigee: 231.6308°
revolutions per day: 14.99600691
mean anomaly at epoch: 128.3072°
orbit number at epoch: 54191

The dashed part of the orbit path shows where the satellite is in the earth's shadow,  

DLR